Columbia Owens, SC

5:55 AM EDT on August 22, 2017 (GMT -0400)
Columbia Owens Downtown

Weather History for KCUB - January, 2013

Change the Weather History Date:

Wednesday, January 30, 2013

  Actual Average Record
Temperature  
Mean Temperature 68 °F 47 °F  
Max Temperature 81 °F 57 °F 81 °F (2002)
Min Temperature 55 °F 37 °F 18 °F (2014)
Degree Days  
Heating Degree Days 0 18  
Month to date heating degree days 381 577  
Since 1 July heating degree days 1174 1477  
Cooling Degree Days 3 0  
Month to date cooling degree days 24 0  
Year to date cooling degree days 24 0  
Growing Degree Days 18 (Base 50)    
Moisture  
Dew Point 60 °F    
Average Humidity 77    
Maximum Humidity 90    
Minimum Humidity 45    
Precipitation  
Precipitation 0.44 in 0.14 in 0.73 in (2003)
Month to date precipitation 1.42 3.48  
Year to date precipitation 1.42 3.48  
Sea Level Pressure  
Sea Level Pressure 29.79 in    
Wind  
Wind Speed 13 mph (SSW)    
Max Wind Speed 24 mph    
Max Gust Speed 33 mph    
Visibility 9 miles    
Events Rain    
T = Trace of Precipitation, MM = Missing Value Source: NWS Daily Summary

Daily Weather History Graph

Daily Weather History Graph

Search for Another Location

Airport or City:

Trip Planner

Search our weather history database for the weather conditions in past years. The results will help you decide how hot, cold, wet, or windy it might be!

Date:

Astronomy

Jan. 30, 2013 Rise Set
Actual Time 7:22 AM EST 5:52 PM EST
Civil Twilight 6:55 AM EST 6:19 PM EST
Nautical Twilight 6:25 AM EST 6:49 PM EST
Astronomical Twilight 5:56 AM EST 7:18 PM EST
Moon 9:36 PM EST (1/30) 9:01 AM EST (1/30)
Length of Visible Light 11h 23m
Length of Day
10h 30m
Waning Gibbous, 88% of the Moon is Illuminated
Jan 30
Waning Gibbous
Feb 3
Last Quarter
Feb 10
New
Feb 17
First Quarter
Feb 25
Full

Hourly Weather History & Observations

Time (EST) Temp. Heat Index Dew Point Humidity Pressure Visibility Wind Dir Wind Speed Gust Speed Precip Events Conditions
12:30 AM 66.2 °F - 62.6 °F 88% 30.08 in 10.0 mi South 10.4 mph - N/A   Mostly Cloudy
12:53 AM 66.9 °F - 63.0 °F 87% 30.07 in 10.0 mi South 11.5 mph - N/A   Mostly Cloudy
1:36 AM 66.2 °F - 62.6 °F 88% 30.06 in 10.0 mi South 10.4 mph 18.4 mph N/A   Overcast
1:53 AM 66.9 °F - 63.0 °F 87% 30.06 in 10.0 mi South 10.4 mph - N/A   Overcast
2:53 AM 68.0 °F - 63.0 °F 84% 30.04 in 10.0 mi South 9.2 mph - N/A   Overcast
3:53 AM 68.0 °F - 63.0 °F 84% 30.01 in 10.0 mi South 13.8 mph - N/A   Overcast
4:53 AM 68.0 °F - 63.0 °F 84% 29.98 in 10.0 mi South 10.4 mph 16.1 mph N/A   Mostly Cloudy
5:53 AM 69.1 °F - 63.0 °F 81% 29.96 in 10.0 mi South 12.7 mph 23.0 mph N/A   Overcast
6:53 AM 69.1 °F - 63.0 °F 81% 29.96 in 10.0 mi South 11.5 mph 19.6 mph N/A   Overcast
7:53 AM 69.1 °F - 63.0 °F 81% 29.95 in 10.0 mi South 9.2 mph 20.7 mph N/A   Overcast
8:53 AM 70.0 °F - 64.0 °F 81% 29.94 in 10.0 mi South 9.2 mph - N/A   Overcast
9:53 AM 70.0 °F - 64.0 °F 81% 29.93 in 10.0 mi South 8.1 mph 17.3 mph N/A   Overcast
10:53 AM 72.0 °F - 64.0 °F 76% 29.91 in 10.0 mi South 10.4 mph 18.4 mph N/A   Overcast
11:53 AM 75.9 °F - 61.0 °F 60% 29.87 in 10.0 mi South 17.3 mph 29.9 mph N/A   Mostly Cloudy
12:53 PM 78.1 °F - 60.1 °F 54% 29.81 in 10.0 mi South 19.6 mph 28.8 mph N/A   Mostly Cloudy
1:53 PM 81.0 °F 81.3 °F 59.0 °F 47% 29.75 in 10.0 mi South 17.3 mph 28.8 mph N/A   Partly Cloudy
2:53 PM 80.1 °F 80.6 °F 57.9 °F 47% 29.72 in 10.0 mi South 20.7 mph 32.2 mph N/A   Partly Cloudy
3:53 PM 79.0 °F - 59.0 °F 50% 29.68 in 10.0 mi South 18.4 mph 28.8 mph N/A   Mostly Cloudy
4:53 PM 77.0 °F - 60.1 °F 56% 29.65 in 10.0 mi SSE 11.5 mph 25.3 mph N/A   Mostly Cloudy
5:53 PM 73.0 °F - 62.1 °F 68% 29.62 in 10.0 mi South 9.2 mph 23.0 mph 0.00 in Rain Light Rain
6:53 PM 72.0 °F - 61.0 °F 68% 29.60 in 10.0 mi South 11.5 mph 26.5 mph 0.00 in   Mostly Cloudy
7:53 PM 72.0 °F - 60.1 °F 66% 29.58 in 10.0 mi South 15.0 mph 26.5 mph N/A   Partly Cloudy
8:53 PM 70.0 °F - 62.1 °F 76% 29.54 in 8.0 mi South 18.4 mph 26.5 mph 0.01 in Rain Light Rain
9:17 PM 68.0 °F - 62.6 °F 83% 29.62 in 1.5 mi West 20.7 mph 28.8 mph 0.19 in Rain Heavy Rain
9:20 PM 66.2 °F - 64.4 °F 94% 29.61 in 1.0 mi West 20.7 mph 28.8 mph 0.24 in Rain Heavy Rain
9:27 PM 66.2 °F - 62.6 °F 88% 29.61 in 2.0 mi West 13.8 mph 28.8 mph 0.26 in Rain Rain
9:35 PM 64.4 °F - 60.8 °F 88% 29.61 in 9.0 mi West 16.1 mph 23.0 mph 0.27 in Rain Light Rain
9:53 PM 63.0 °F - 59.0 °F 87% 29.65 in 10.0 mi WNW 13.8 mph 27.6 mph 0.27 in Rain Light Rain
10:24 PM 60.8 °F - 55.4 °F 82% 29.66 in 10.0 mi West 11.5 mph 24.2 mph 0.07 in Rain Light Rain
10:53 PM 59.0 °F - 53.1 °F 81% 29.68 in 10.0 mi WSW 13.8 mph 27.6 mph 0.08 in Rain Light Rain
11:21 PM 57.2 °F - 53.6 °F 88% 29.69 in 3.0 mi West 8.1 mph - 0.06 in Rain Heavy Rain
11:25 PM 57.2 °F - 53.6 °F 88% 29.68 in 2.5 mi West 8.1 mph - 0.07 in Rain Rain
11:34 PM 55.4 °F - 51.8 °F 88% 29.69 in 5.0 mi WNW 8.1 mph 16.1 mph 0.08 in Rain Light Rain
11:53 PM 55.9 °F - 53.1 °F 90% 29.68 in 10.0 mi SSW 8.1 mph - 0.08 in   Overcast